| time (UTC) | temp F | wind direction | speed knots | gust knots | rain 1hr in | rain 24hr in | rain mn in | humidity % | barometer mb |
| 20260506224505 | 55 | 294 | 0.0 | 4.3 | 0.07 | 0.81 | 0.03 | 91 | 1006.8 |
| 20260506223004 | 55 | 264 | 0.9 | 2.6 | 0.08 | 0.80 | 0.02 | 91 | 1006.6 |
| 20260506221617 | 55 | 305 | 0.0 | 2.6 | 0.08 | 0.79 | 0.01 | 90 | 1006.4 |
| 20260506220047 | 55 | 54 | 3.5 | 8.7 | 0.07 | 0.77 | 0.77 | 90 | 1005.8 |
| 20260506214540 | 56 | 331 | 4.3 | 8.7 | 0.05 | 0.74 | 0.74 | 90 | 1006.0 |
| 20260506213038 | 56 | 331 | 1.7 | 5.2 | 0.05 | 0.72 | 0.72 | 90 | 1006.3 |
| 20260506211546 | 56 | 360 | 0.0 | 3.5 | 0.08 | 0.70 | 0.70 | 90 | 1006.6 |
| 20260506210022 | 56 | 320 | 0.0 | 7.0 | 0.14 | 0.70 | 0.70 | 90 | 1006.6 |
| 20260506204514 | 56 | 272 | 0.9 | 5.2 | 0.19 | 0.69 | 0.69 | 89 | 1006.1 |
| 20260506203015 | 56 | 308 | 0.9 | 4.3 | 0.22 | 0.66 | 0.66 | 89 | 1006.0 |
| 20260506161525 | 72 | 219 | 1.7 | 6.1 | 0.00 | 0.00 | 0.00 | 47 | 1004.5 |
| 20260506160008 | 72 | 212 | 1.7 | 7.0 | 0.00 | 0.00 | 0.00 | 45 | 1004.4 |
| 20260506154505 | 73 | 287 | 2.6 | 7.0 | 0.00 | 0.00 | 0.00 | 44 | 1004.5 |
| 20260506153005 | 73 | 186 | 0.9 | 7.8 | 0.00 | 0.00 | 0.00 | 46 | 1004.6 |
| 20260506151505 | 73 | 185 | 2.6 | 6.1 | 0.00 | 0.00 | 0.00 | 44 | 1004.5 |
| 20260506150057 | 72 | 175 | 3.5 | 7.0 | 0.00 | 0.00 | 0.00 | 48 | 1004.7 |
| 20260506144602 | 72 | 236 | 2.6 | 10.4 | 0.00 | 0.00 | 0.00 | 50 | 1004.8 |
| 20260506143051 | 73 | 90 | 0.9 | 11.3 | 0.00 | 0.00 | 0.00 | 50 | 1004.8 |
| 20260506141540 | 71 | 205 | 4.3 | 8.7 | 0.00 | 0.00 | 0.00 | 52 | 1005.0 |
| 20260506140028 | 71 | 233 | 2.6 | 13.0 | 0.00 | 0.00 | 0.00 | 52 | 1005.0 |
| 20260506134521 | 71 | 230 | 5.2 | 13.0 | 0.00 | 0.00 | 0.00 | 50 | 1005.1 |
| 20260506133017 | 71 | 205 | 5.2 | 9.6 | 0.00 | 0.00 | 0.00 | 51 | 1005.0 |
| 20260506131510 | 70 | 191 | 3.5 | 14.8 | 0.00 | 0.00 | 0.00 | 53 | 1005.2 |
| 20260506130107 | 69 | 225 | 4.3 | 8.7 | 0.00 | 0.00 | 0.00 | 53 | 1005.4 |